DW3225 Weather Reports


time (UTC)temp
C
wind
direction
speed
KPH
gust
KPH
rain 1hr
cm
rain 24hr
cm
rain mn
cm
humidity
%
barometer
mb
20260906175005 36 190 1.6 4.8 0.00 0.00 0.00 45 1011.7
20260906173505 36 138 1.6 4.8 0.00 0.00 0.00 47 1012.1
20260906173005 36 234 1.6 4.8 0.00 0.00 0.00 46 1012.2
20260906172505 36 234 1.6 4.8 0.00 0.00 0.00 47 1012.2
20260906172005 36 234 1.6 8.0 0.00 0.00 0.00 48 1012.3
20260906171505 36 136 3.2 8.0 0.00 0.00 0.00 47 1012.4
20260906171005 36 147 1.6 3.2 0.00 0.00 0.00 49 1012.4
20260906170505 36 148 1.6 3.2 0.00 0.00 0.00 48 1012.6
20260906170005 36 148 1.6 4.8 0.00 0.00 0.00 48 1012.6
20260906165505 35 148 3.2 4.8 0.00 0.00 0.00 48 1012.6
20260906164505 35 142 1.6 4.8 0.00 0.00 0.00 51 1012.7
20260906164006 35 138 1.6 4.8 0.00 0.00 0.00 50 1012.7
20260906163505 35 129 1.6 4.8 0.00 0.00 0.00 51 1012.8
20260906163005 35 130 1.6 4.8 0.00 0.00 0.00 51 1012.7
20260906162505 35 130 1.6 4.8 0.00 0.00 0.00 52 1012.8
20260906162005 35 119 1.6 8.0 0.00 0.00 0.00 53 1012.8
20260906161505 34 121 3.2 8.0 0.00 0.00 0.00 53 1012.7
20260906161005 34 124 1.6 4.8 0.00 0.00 0.00 53 1012.7
20260906160505 34 117 3.2 4.8 0.00 0.00 0.00 53 1012.7
20260906160005 34 127 1.6 4.8 0.00 0.00 0.00 55 1012.7
20260906155505 33 119 1.6 4.8 0.00 0.00 0.00 56 1012.6
20260906155005 33 119 3.2 4.8 0.00 0.00 0.00 56 1012.5
20260906154505 33 118 1.6 4.8 0.00 0.00 0.00 56 1012.5
20260906153505 33 122 1.6 4.8 0.00 0.00 0.00 57 1012.5
20260906153005 33 116 1.6 3.2 0.00 0.00 0.00 58 1012.5
20260906152505 33 116 1.6 4.8 0.00 0.00 0.00 59 1012.6
20260906152005 32 116 1.6 4.8 0.00 0.00 0.00 58 1012.6
20260906151504 32 119 1.6 4.8 0.00 0.00 0.00 60 1012.7
20260906151005 32 122 1.6 4.8 0.00 0.00 0.00 60 1012.6
20260906150505 32 119 1.6 4.8 0.00 0.00 0.00 61 1012.6
20260906150004 32 119 1.6 4.8 0.00 0.00 0.00 61 1012.6
20260906145505 32 115 1.6 4.8 0.00 0.00 0.00 62 1012.6
20260906145005 32 116 1.6 4.8 0.00 0.00 0.00 62 1012.7
20260906144505 31 113 1.6 4.8 0.00 0.00 0.00 62 1012.7
20260906143505 31 112 1.6 4.8 0.00 0.00 0.00 63 1012.7
20260906142504 30 113 0.0 4.8 0.00 0.00 0.00 64 1012.7
20260906142005 30 113 3.2 4.8 0.00 0.00 0.00 65 1012.6
20260906141505 30 113 1.6 3.2 0.00 0.00 0.00 66 1012.6
20260906141005 29 105 0.0 8.0 0.00 0.00 0.00 67 1012.6
20260906140505 29 105 3.2 8.0 0.00 0.00 0.00 67 1012.5
20260906140005 29 122 1.6 11.3 0.00 0.00 0.00 67 1012.6
20260906135505 28 126 1.6 11.3 0.00 0.00 0.00 67 1012.5
20260906135005 29 111 3.2 9.7 0.00 0.00 0.00 67 1012.5
20260906134505 29 125 1.6 4.8 0.00 0.00 0.00 67 1012.5
20260906133505 28 127 1.6 4.8 0.00 0.00 0.00 68 1012.4
20260906133005 28 128 0.0 4.8 0.00 0.00 0.00 69 1012.4
20260906132504 28 128 1.6 4.8 0.00 0.00 0.00 70 1012.3
20260906132005 27 127 1.6 3.2 0.00 0.00 0.00 70 1012.3
20260906131005 27 127 0.0 4.8 0.00 0.00 0.00 72 1012.2
20260906130004 26 127 1.6 3.2 0.00 0.00 0.00 73 1011.9
20260906125508 26 128 1.6 3.2 0.00 0.00 0.00 74 1011.9
20260906125005 26 132 0.0 1.6 0.00 0.00 0.00 75 1011.8
20260906124505 26 132 0.0 1.6 0.00 0.00 0.00 75 1011.8
20260906124005 25 132 0.0 1.6 0.00 0.00 0.00 76 1011.7
20260906123005 25 132 0.0 1.6 0.00 0.00 0.00 76 1011.6
20260906122505 25 132 0.0 1.6 0.00 0.00 0.00 77 1011.5
20260906122004 25 132 0.0 1.6 0.00 0.00 0.00 76 1011.4
20260906121504 25 132 0.0 1.6 0.00 0.00 0.00 76 1011.4
20260906120505 25 132 0.0 0.0 0.00 0.00 0.00 76 1011.4
20260906120004 25 132 0.0 0.0 0.00 0.00 0.00 76 1011.4
20260906115504 25 132 0.0 0.0 0.00 0.00 0.00 76 1011.3
20260906115005 25 132 0.0 1.6 0.00 0.00 0.00 75 1011.4
20260906114004 25 132 0.0 3.2 0.00 0.00 0.00 75 1011.3
20260906113005 25 132 0.0 3.2 0.00 0.00 0.00 75 1011.3
20260906112504 25 131 0.0 1.6 0.00 0.00 0.00 75 1011.3
20260906112004 26 130 0.0 3.2 0.00 0.00 0.00 74 1011.4
20260906111005 26 130 1.6 4.8 0.00 0.00 0.00 74 1011.3
20260906110004 26 130 0.0 4.8 0.00 0.00 0.00 74 1011.2
20260906105504 26 130 1.6 3.2 0.00 0.00 0.00 74 1011.3
20260906105005 26 130 1.6 3.2 0.00 0.00 0.00 73 1011.3
20260906104505 26 130 0.0 1.6 0.00 0.00 0.00 73 1011.2
20260906104005 26 130 0.0 1.6 0.00 0.00 0.00 73 1011.2
20260906103505 26 130 0.0 1.6 0.00 0.00 0.00 73 1011.1
20260906102505 26 130 0.0 1.6 0.00 0.00 0.00 73 1011.1
20260906102004 26 130 0.0 0.0 0.00 0.00 0.00 73 1011.1
20260906101504 26 130 0.0 0.0 0.00 0.00 0.00 74 1011.1
20260906101005 26 130 0.0 1.6 0.00 0.00 0.00 74 1011.1
20260906100505 26 130 0.0 1.6 0.00 0.00 0.00 74 1011.1
20260906100004 26 130 0.0 1.6 0.00 0.00 0.00 74 1011.0
20260906095504 26 130 0.0 1.6 0.00 0.00 0.00 73 1011.0
20260906095005 26 130 0.0 1.6 0.00 0.00 0.00 73 1010.9
20260906094005 26 130 0.0 0.0 0.00 0.00 0.00 73 1010.9
20260906092505 26 130 0.0 0.0 0.00 0.00 0.00 72 1010.9
20260906092005 26 130 0.0 0.0 0.00 0.00 0.00 72 1010.9
20260906091504 26 130 0.0 0.0 0.00 0.00 0.00 72 1010.9
20260906091004 26 130 0.0 1.6 0.00 0.00 0.00 71 1010.8
20260906090505 26 130 0.0 1.6 0.00 0.00 0.00 71 1010.8
20260906090004 26 130 0.0 3.2 0.00 0.00 0.00 71 1010.7
20260906085005 27 130 1.6 3.2 0.00 0.00 0.00 70 1010.7
20260906084505 27 130 0.0 3.2 0.00 0.00 0.00 70 1010.7
20260906083504 27 130 0.0 3.2 0.00 0.00 0.00 70 1010.5
20260906083004 27 130 0.0 1.6 0.00 0.00 0.00 70 1010.6
20260906082505 27 130 0.0 0.0 0.00 0.00 0.00 69 1010.6
20260906081504 27 130 0.0 0.0 0.00 0.00 0.00 69 1010.5
20260906081005 27 130 0.0 0.0 0.00 0.00 0.00 69 1010.5
20260906080504 27 130 0.0 0.0 0.00 0.00 0.00 69 1010.5
20260906080005 27 130 0.0 0.0 0.00 0.00 0.00 69 1010.5
20260906075505 27 130 0.0 0.0 0.00 0.00 0.00 69 1010.4
20260906075005 27 130 0.0 0.0 0.00 0.00 0.00 70 1010.4
20260906074005 27 130 0.0 1.6 0.00 0.00 0.00 69 1010.4
20260906073505 27 130 0.0 0.0 0.00 0.00 0.00 69 1010.5
20260906073005 27 130 0.0 0.0 0.00 0.00 0.00 69 1010.5
20260906072504 27 130 0.0 0.0 0.00 0.00 0.00 69 1010.5
20260906071005 27 130 0.0 0.0 0.00 0.00 0.00 68 1010.6
20260906070505 27 130 0.0 0.0 0.00 0.00 0.00 68 1010.5
20260906070005 27 130 0.0 0.0 0.00 0.00 0.00 68 1010.7
20260906065504 27 130 0.0 1.6 0.00 0.00 0.00 68 1010.6
20260906065005 27 130 0.0 1.6 0.00 0.00 0.00 67 1010.6
20260906064005 27 130 0.0 1.6 0.00 0.00 0.00 67 1010.7
20260906063505 28 130 0.0 1.6 0.00 0.00 0.00 67 1010.8
20260906063005 28 130 0.0 1.6 0.00 0.00 0.00 66 1010.7
20260906062504 28 130 0.0 1.6 0.00 0.00 0.00 66 1010.7
20260906062005 28 130 0.0 1.6 0.00 0.00 0.00 66 1010.8
20260906061505 28 130 0.0 1.6 0.00 0.00 0.00 66 1010.7
20260906061004 28 130 0.0 1.6 0.00 0.00 0.00 66 1010.8
20260906060504 28 130 0.0 1.6 0.00 0.00 0.00 66 1010.8
20260906060005 28 130 0.0 1.6 0.00 0.00 0.00 66 1010.9
20260906055505 28 130 0.0 1.6 0.00 0.00 0.00 66 1010.9
20260906055005 28 130 0.0 1.6 0.00 0.00 0.00 66 1010.9
20260906054504 28 130 0.0 1.6 0.00 0.00 0.00 66 1011.0
20260906054004 28 130 0.0 1.6 0.00 0.00 0.00 66 1011.1
20260906053504 28 130 0.0 1.6 0.00 0.00 0.00 66 1011.0
20260906053004 28 130 0.0 1.6 0.00 0.00 0.00 66 1011.1
20260906052505 28 130 0.0 0.0 0.00 0.00 0.00 65 1011.1
20260906052005 28 130 0.0 1.6 0.00 0.00 0.00 65 1011.1
20260906051504 28 130 0.0 1.6 0.00 0.00 0.00 65 1011.0
20260906051004 28 130 0.0 1.6 0.00 0.00 0.00 65 1011.0
20260906050505 28 130 0.0 1.6 0.00 0.00 0.00 65 1011.0
20260906045504 28 130 0.0 1.6 0.00 0.00 0.00 65 1010.9
20260906045004 28 130 0.0 1.6 0.00 0.00 0.00 65 1011.0
20260906044504 28 130 0.0 1.6 0.00 0.00 0.00 64 1011.0
20260906044004 29 130 0.0 1.6 0.00 0.00 0.00 64 1011.0
20260906043504 29 130 0.0 1.6 0.00 0.00 0.00 64 1011.0
20260906043005 29 130 0.0 1.6 0.00 0.00 0.00 65 1011.0
20260906042504 29 130 0.0 1.6 0.00 0.00 0.00 65 1011.0
20260906042005 29 130 0.0 1.6 0.00 0.00 0.00 65 1010.9
20260906041004 29 130 0.0 1.6 0.00 0.00 0.00 64 1010.8
20260906040004 30 130 0.0 1.6 0.00 0.00 0.00 63 1010.8
20260906035504 30 130 1.6 1.6 0.00 0.00 0.00 63 1010.8
20260906034504 30 130 0.0 1.6 0.00 0.00 0.00 62 1010.7
20260906034005 30 130 0.0 1.6 0.00 0.00 0.00 62 1010.6
20260906033504 30 130 0.0 1.6 0.00 0.00 0.00 62 1010.7
20260906033004 30 130 0.0 1.6 0.00 0.00 0.00 61 1010.6
20260906032504 30 130 0.0 3.2 0.00 0.00 0.00 61 1010.6
20260906032004 30 130 0.0 3.2 0.00 0.00 0.00 61 1010.7
20260906031504 30 130 0.0 3.2 0.00 0.00 0.00 61 1010.6
20260906031004 30 132 0.0 1.6 0.00 0.00 0.00 61 1010.6
20260906030504 30 132 0.0 1.6 0.00 0.00 0.00 61 1010.5
20260906030004 30 132 0.0 3.2 0.00 0.00 0.00 61 1010.4
20260906024504 31 129 1.6 3.2 0.00 0.00 0.00 61 1010.2
20260906024004 31 128 0.0 4.8 0.00 0.00 0.00 61 1010.2
20260906023504 31 128 0.0 4.8 0.00 0.00 0.00 60 1010.1
20260906022504 31 129 0.0 1.6 0.00 0.00 0.00 60 1009.9
20260906022004 31 129 0.0 1.6 0.00 0.00 0.00 60 1009.7
20260906021504 31 129 0.0 1.6 0.00 0.00 0.00 59 1009.6
20260906021005 31 129 0.0 1.6 0.00 0.00 0.00 59 1009.6
20260906020505 31 129 0.0 1.6 0.00 0.00 0.00 59 1009.6
20260906015504 31 129 0.0 4.8 0.00 0.00 0.00 58 1009.7
20260906015005 31 129 1.6 4.8 0.00 0.00 0.00 58 1009.4
20260906014504 32 132 1.6 4.8 0.00 0.00 0.00 57 1009.4
20260906013504 32 132 0.0 3.2 0.00 0.00 0.00 57 1009.2
20260906013004 32 132 0.0 3.2 0.00 0.00 0.00 56 1009.2
20260906012504 32 132 1.6 3.2 0.00 0.00 0.00 56 1009.2
20260906012005 32 132 0.0 3.2 0.00 0.00 0.00 56 1009.1
20260906011504 32 132 0.0 4.8 0.00 0.00 0.00 55 1009.1
20260906011004 32 132 1.6 4.8 0.00 0.00 0.00 54 1009.1
20260906010505 33 130 1.6 4.8 0.00 0.00 0.00 54 1009.0
20260906010005 33 132 1.6 4.8 0.00 0.00 0.00 54 1009.1
20260906005505 33 132 1.6 3.2 0.00 0.00 0.00 53 1009.1
20260906005005 33 132 1.6 4.8 0.00 0.00 0.00 53 1009.1
20260906004505 33 132 1.6 4.8 0.00 0.00 0.00 52 1009.1
20260906004005 33 132 0.0 3.2 0.00 0.00 0.00 52 1009.0
20260906003005 34 134 1.6 4.8 0.00 0.00 0.00 50 1009.0
20260906002505 35 116 3.2 4.8 0.00 0.00 0.00 48 1009.0
20260906001506 35 97 1.6 4.8 0.00 0.00 0.00 44 1009.1
20260906001005 36 91 0.0 1.6 0.00 0.00 0.00 41 1009.0
20260906000506 36 91 0.0 1.6 0.00 0.00 0.00 40 1009.0
20260906000005 36 91 0.0 1.6 0.00 0.00 0.00 38 1009.0
20260905235506 37 91 0.0 1.6 0.00 0.00 0.00 38 1009.0
20260905235005 37 91 0.0 3.2 0.00 0.00 0.00 39 1009.0
20260905234506 37 91 0.0 3.2 0.00 0.00 0.00 38 1009.0
20260905234006 37 91 0.0 1.6 0.00 0.00 0.00 36 1009.0
20260905233505 38 91 0.0 3.2 0.00 0.00 0.00 36 1009.0
20260905233006 38 91 1.6 3.2 0.00 0.00 0.00 36 1008.9
20260905232505 38 91 1.6 3.2 0.00 0.00 0.00 36 1008.9
20260905232006 38 91 0.0 3.2 0.00 0.00 0.00 35 1008.8
20260905231505 39 90 0.0 3.2 0.00 0.00 0.00 35 1008.9
20260905231005 39 90 0.0 3.2 0.00 0.00 0.00 37 1008.8
20260905230505 38 90 0.0 4.8 0.00 0.00 0.00 36 1008.8
20260905225505 38 0 0.0 3.2 0.00 0.00 0.00 36 1008.8
20260905225005 37 0 1.6 4.8 0.00 0.00 0.00 37 1008.7
20260905224505 37 0 3.2 4.8 0.00 0.00 0.00 36 1008.8
20260905224005 37 252 3.2 4.8 0.00 0.00 0.00 37 1008.8
20260905223505 38 243 1.6 4.8 0.00 0.00 0.00 37 1008.8
20260905223005 37 241 0.0 1.6 0.00 0.00 0.00 36 1008.9
20260905222505 37 241 0.0 4.8 0.00 0.00 0.00 38 1009.0
20260905222005 37 241 3.2 4.8 0.00 0.00 0.00 38 1008.9
20260905221505 37 241 1.6 4.8 0.00 0.00 0.00 38 1009.0
20260905221005 37 246 1.6 4.8 0.00 0.00 0.00 37 1009.1
20260905220505 37 245 3.2 4.8 0.00 0.00 0.00 36 1009.2
20260905215505 38 230 3.2 11.3 0.00 0.00 0.00 37 1009.2
20260905215005 37 230 3.2 11.3 0.00 0.00 0.00 38 1009.3
20260905214505 37 233 3.2 9.7 0.00 0.00 0.00 37 1009.3
20260905214005 37 310 3.2 9.7 0.00 0.00 0.00 38 1009.3
20260905213505 37 275 3.2 8.0 0.00 0.00 0.00 38 1009.5
20260905213005 37 294 3.2 9.7 0.00 0.00 0.00 36 1009.5
20260905212505 38 295 3.2 9.7 0.00 0.00 0.00 37 1009.5
20260905211505 38 288 1.6 4.8 0.00 0.00 0.00 36 1009.5
20260905211005 38 280 1.6 4.8 0.00 0.00 0.00 35 1009.5
20260905210506 38 277 0.0 8.0 0.00 0.00 0.00 36 1009.5
20260905210005 37 298 3.2 8.0 0.00 0.00 0.00 36 1009.5
20260905205504 37 0 4.8 11.3 0.00 0.00 0.00 35 1009.8
20260905205005 38 309 6.4 11.3 0.00 0.00 0.00 35 1009.9
20260905204505 38 255 1.6 9.7 0.00 0.00 0.00 37 1010.1
20260905204005 38 242 3.2 8.0 0.00 0.00 0.00 34 1010.0
20260905203505 38 262 1.6 9.7 0.00 0.00 0.00 36 1010.1
20260905202505 39 217 1.6 4.8 0.00 0.00 0.00 35 1010.2
20260905202005 39 216 1.6 4.8 0.00 0.00 0.00 35 1010.3
20260905200505 38 217 3.2 8.0 0.00 0.00 0.00 37 1010.5
20260905200005 37 128 3.2 4.8 0.00 0.00 0.00 39 1010.5
20260905195505 37 246 0.0 4.8 0.00 0.00 0.00 40 1010.5
20260905195005 37 246 1.6 8.0 0.00 0.00 0.00 38 1010.6
20260905194505 38 323 4.8 8.0 0.00 0.00 0.00 37 1010.7
20260905194004 38 119 1.6 4.8 0.00 0.00 0.00 38 1010.7
20260905193505 38 116 3.2 8.0 0.00 0.00 0.00 38 1010.8
20260905192505 37 127 0.0 4.8 0.00 0.00 0.00 41 1010.8
20260905191505 36 127 3.2 9.7 0.00 0.00 0.00 41 1010.9
20260905191005 36 65 1.6 4.8 0.00 0.00 0.00 43 1010.9
20260905190505 35 65 3.2 4.8 0.00 0.00 0.00 43 1011.0
20260905190005 35 5 3.2 4.8 0.00 0.00 0.00 43 1011.0
20260905185005 35 247 3.2 4.8 0.00 0.00 0.00 42 1011.2
20260905184505 36 243 1.6 9.7 0.00 0.00 0.00 42 1011.3
20260905184005 36 242 3.2 16.1 0.00 0.00 0.00 41 1011.4
20260905183505 36 237 4.8 16.1 0.00 0.00 0.00 42 1011.4
20260905183005 36 231 3.2 9.7 0.00 0.00 0.00 42 1011.4
20260905182504 36 288 1.6 9.7 0.00 0.00 0.00 44 1011.5
20260905182005 35 262 1.6 8.0 0.00 0.00 0.00 44 1011.6
20260905181505 36 270 4.8 8.0 0.00 0.00 0.00 42 1011.7
20260905181005 36 283 4.8 8.0 0.00 0.00 0.00 43 1011.7
20260905180505 36 261 1.6 8.0 0.00 0.00 0.00 43 1011.7
20260905180004 35 247 3.2 11.3 0.00 0.00 0.00 44 1011.9
20260905175505 35 321 6.4 12.9 0.00 0.00 0.00 43 1011.8